Location: Prairie State College
(41.5244°N, 87.6382°W)
Time: 20:55:57
(UTC-05:00)

Cosmos 1140 Rocket - Visible Passes

Search period start: 27 June 2017 00:00
Search period end: 07 July 2017 00:00
Orbit: 746 x 767 km, 74.1° (Epoch: 24 June)

Date Brightness Start Highest point End Pass type
(mag) Time Alt. Az. Time Alt. Az. Time Alt. Az.
27 Jun 5.9 21:38:43 10° WSW 21:42:59 25° WNW 21:47:15 10° N visible
28 Jun 7.3 04:43:52 10° NE 04:44:24 10° NE 04:44:56 10° NE visible
28 Jun 4.9 20:57:17 10° SW 21:02:12 44° WNW 21:07:09 10° N visible
29 Jun 6.9 22:02:31 10° WNW 22:04:14 12° NW 22:05:58 10° NNW visible
30 Jun 6.5 21:19:30 10° WSW 21:23:14 20° WNW 21:26:59 10° N visible
01 Jul 6.9 04:22:16 10° NNE 04:24:45 13° NE 04:27:13 10° E visible
03 Jul 5.8 04:41:27 10° N 04:45:56 29° ENE 04:50:24 10° ESE visible
03 Jul 6.8 21:00:30 10° W 21:03:31 15° NW 21:06:32 10° NNW visible
04 Jul 6.5 04:01:40 10° NNE 04:05:03 17° NE 04:08:25 10° E visible
06 Jul 5.1 04:21:20 10° N 04:26:08 38° ENE 04:30:55 10° SE visible
